カタログに戻る

STARLINK-2334

運用中通信VLEO
NORAD 47792·PAYLOAD·🇺🇸 United States

打ち上げ Mar 11, 2021 から Cape Canaveral Space Force Station

Loading…

次のパス (今後24時間)

TLE

最新Source: CelesTrak SupGP

元期: Sep 15, 2026, 00:55 UTC

1 47792C 21018F   26258.03868056  .00010927  00000+0  35126-3 0  2586
2 47792  53.1577  77.9587 0001024  91.9819 163.3334 15.31708889    10

AllMySatでSTARLINK-2334をリアルタイム追跡

Download on the App Store